Location: Newark
(41.8083°N, 72.2500°W)
Time: 19:47:27
(UTC+00:00)

Courier 1B - Pass Details

Date: 08 December 2021
Orbit: 962 x 1209 km, 28.3° (Epoch: 19 January)

Event Time Altitude Azimuth Distance (km) Brightness Sun altitude
Rises 19:06:31 0° 224° (SW) 4,101 12.4 17.2°
Reaches altitude 10° 19:10:09 10° 209° (SSW) 3,133 12.7 16.8°
Maximum altitude 19:15:43 21° 164° (SSE) 2,362 10.2 16.2°
Drops below altitude 10° 19:21:11 10° 118° (ESE) 3,068 10.1 15.5°
Sets 19:24:40 0° 103° (ESE) 3,993 10.4 15.1°
